Tracking 29892 objects as of 21-Nov-2024
HD Live streaming from Space Station
objects crossing your sky now

STARLINK-2429

Track STARLINK-2429 now!
10-day predictions
STARLINK-2429 is classified as:


NORAD ID: 47838
Int'l Code: 2021-018BD
Perigee: 553.4 km
Apogee: 555.4 km
Inclination: 53.1 °
Period: 95.6 minutes
Semi major axis: 6925 km
RCS: Unknown
Launch date: March 11, 2021
Source: United States (US)
Launch site: AIR FORCE EASTERN TEST RANGE (AFETR)
Your satellite tracking list
Your tracking list is empty




NASA's NSSDC Master Catalog

Two Line Element Set (TLE):
1 47838U 21018BD  24325.12506783  .00031021  00000-0  20928-2 0  9990
2 47838  53.0532 222.0198 0001411  75.0648 285.0497 15.06391295205060
Source of the keplerian elements: AFSPC